Location: Unspecified
(0.0000°N, 0.0000°E)
Time: 18:45:15
(UTC+00:00)

OTV 5 (USA 277) - Pass Details

Date: 24 November 2017
Orbit: 404 x 417 km, 43.0° (Epoch: 07 September)

Event Time Altitude Azimuth Distance (km) Brightness Sun altitude
Rises 18:25:36 0° 221° (SW) 2,350 ? -9.1°
Reaches altitude 10° 18:27:44 10° 218° (SW) 1,486 ? -9.6°
Maximum altitude 18:31:04 67° 134° (SE) 450 ? -10.3°
Enters shadow 18:33:38 16° 53° (NE) 1,178 ? -10.9°
